Date,TemperatureHighF,TemperatureAvgF,TemperatureLowF,DewpointHighF,DewpointAvgF,DewpointLowF,HumidityHigh,HumidityAvg,HumidityLow,PressureMaxIn,PressureMinIn,WindSpeedMaxMPH,WindSpeedAvgMPH,GustSpeedMaxMPH,PrecipitationSumIn
2013-1-1,73.0,70.2,68.0,70.0,67.0,65.0,92,89,83,30.11,30.01,23,11,30,0.28
2013-1-2,72.0,69.9,69.0,69.0,67.1,65.0,94,90,86,30.07,29.97,22,10,28,0.40
2013-1-3,74.0,69.7,68.0,69.0,66.8,64.0,95,90,82,30.08,29.98,30,11,32,0.75
2013-1-4,76.0,71.4,70.0,68.0,65.9,64.0,87,83,77,30.12,30.02,25,12,43,0.03
2013-1-5,74.0,71.1,69.0,68.0,66.5,65.0,90,85,79,30.14,30.05,30,14,39,0.09
2013-1-6,77.0,72.7,70.0,69.0,66.6,65.0,87,81,72,30.13,30.00,27,12,39,0.01
2013-1-7,78.0,72.7,70.0,69.0,66.9,65.0,87,82,73,30.08,29.96,24,11,31,0.00
2013-1-8,78.0,71.6,68.0,69.0,66.5,65.0,91,84,74,30.01,29.89,22,10,26,0.12
2013-1-9,78.0,72.3,69.0,69.0,67.4,66.0,91,85,74,30.00,29.90,22,10,30,0.11
2013-1-10,83.0,73.2,70.0,70.0,66.1,64.0,86,79,66,29.99,29.91,16,8,29,0.00
2013-1-11,77.0,72.1,69.0,68.0,66.2,64.0,89,82,71,29.97,29.86,17,8,32,0.00
2013-1-12,79.0,73.2,70.0,71.0,68.2,66.0,90,84,73,29.96,29.87,13,4,19,0.01
2013-1-13,82.0,73.9,69.0,70.0,68.0,66.0,92,82,65,29.97,29.91,9,2,9,0.00
2013-1-14,77.0,71.4,68.0,72.0,68.3,66.0,95,90,78,29.96,29.85,22,6,34,0.27
2013-1-15,77.0,70.2,67.0,68.0,64.0,57.0,93,81,67,29.94,29.85,18,5,18,0.01
2013-1-16,79.0,70.5,66.0,66.0,60.3,53.0,80,70,59,29.94,29.83,18,4,21,0.00
2013-1-17,75.0,69.1,66.0,65.0,62.0,60.0,86,78,72,29.91,29.81,16,4,18,0.01
2013-1-18,78.0,70.4,67.0,65.0,61.1,55.0,82,73,57,29.94,29.82,21,6,34,0.00
2013-1-19,75.0,69.2,66.0,61.0,56.5,54.0,72,64,55,30.02,29.90,20,7,32,0.00
2013-1-20,75.0,69.7,67.0,60.0,58.5,56.0,74,68,57,30.06,29.96,25,10,31,0.00
2013-1-21,77.0,70.8,68.0,64.0,61.2,58.0,80,72,62,30.12,30.02,24,10,27,0.00
2013-1-22,78.0,72.0,69.0,68.0,64.0,61.0,83,76,65,30.13,30.03,21,8,25,0.00
2013-1-23,78.0,71.5,68.0,69.0,64.9,60.0,90,80,71,30.07,29.99,18,6,22,0.10
2013-1-24,72.0,69.4,67.0,70.0,66.7,65.0,94,91,87,30.06,29.99,11,3,17,0.49
2013-1-25,78.0,72.0,69.0,70.0,66.5,64.0,88,83,72,30.06,29.97,10,3,13,0.01
2013-1-26,74.0,71.2,68.0,68.0,65.2,63.0,85,81,75,30.02,29.92,12,3,18,0.00
2013-1-27,76.0,72.3,64.0,70.0,66.9,61.0,91,83,78,29.97,29.86,26,8,33,0.47
2013-1-28,75.0,68.6,64.0,70.0,65.3,62.0,94,89,79,29.97,29.88,20,4,25,1.24
2013-1-29,78.0,71.5,68.0,69.0,66.3,65.0,91,84,71,30.02,29.91,10,2,18,0.15
2013-1-30,80.0,72.5,68.0,70.0,66.4,64.0,88,82,68,30.06,29.98,12,4,15,0.05
2013-1-31,76.0,71.9,70.0,69.0,66.5,65.0,88,83,77,30.80,30.02,18,8,25,0.00